This is the latest recevied weather packets stored in our database for station/object K1BWE-1. If no packets are shown the sender has not sent any weather packets the latest 10 day(s).
| Time | Temp. | Humidity | Pressure | Rain* | Wind** | Luminosity | Snow |
|---|---|---|---|---|---|---|---|
| 1777531487 | 18.33° C | 20% | 1015.9 hPa | 0 mm | - | 0 W/m² | - |
| 1777531185 | 18.89° C | 19% | 1015.4 hPa | 0 mm | - | 0 W/m² | - |
| 1777530883 | 18.89° C | 19% | 1015.8 hPa | 0 mm | - | 0 W/m² | - |
| 1777530580 | 18.33° C | 19% | 1015.3 hPa | 0 mm | - | 0 W/m² | - |
| 1777530277 | 18.33° C | 19% | 1015.6 hPa | 0 mm | - | 0 W/m² | - |
| 1777529973 | 18.89° C | 19% | 1015.8 hPa | 0 mm | - | 0 W/m² | - |
| 1777529671 | 18.89° C | 18% | 1015.5 hPa | 0 mm | - | 0 W/m² | - |
| 1777529367 | 18.89° C | 18% | 1015.5 hPa | 0 mm | - | 0 W/m² | - |
| 1777529064 | 19.44° C | 18% | 1015.6 hPa | 0 mm | - | 0 W/m² | - |
| 1777528759 | 20° C | 18% | 1015.8 hPa | 0 mm | - | 0 W/m² | - |
| 1777528456 | 20.56° C | 17% | 1016.1 hPa | 0 mm | - | 0 W/m² | - |
| 1777528155 | 21.11° C | 15% | 1015.9 hPa | 0 mm | - | 0 W/m² | - |
| 1777527852 | 21.11° C | 15% | 1016.1 hPa | 0 mm | - | 0 W/m² | - |
| 1777527547 | 21.11° C | 15% | 1016.2 hPa | 0 mm | - | 0 W/m² | - |
| 1777527243 | 21.11° C | 15% | 1016.2 hPa | 0 mm | - | 0 W/m² | - |
| 1777526938 | 20.56° C | 15% | 1016.2 hPa | 0 mm | - | 0 W/m² | - |
| 1777526634 | 20.56° C | 15% | 1016 hPa | 0 mm | - | 0 W/m² | - |
| 1777526329 | 20° C | 16% | 1015.9 hPa | 0 mm | - | 0 W/m² | - |
| 1777526025 | 20° C | 17% | 1016 hPa | 0 mm | - | 0 W/m² | - |
| 1777525722 | 19.44° C | 17% | 1016.1 hPa | 0 mm | - | 0 W/m² | - |
| 1777525419 | 19.44° C | 18% | 1016.1 hPa | 0 mm | - | 0 W/m² | - |
| 1777525115 | 19.44° C | 18% | 1016 hPa | 0 mm | - | 0 W/m² | - |
| 1777524812 | 20° C | 18% | 1016.2 hPa | 0 mm | - | 0 W/m² | - |
| 1777524510 | 20° C | 18% | 1015.9 hPa | 0 mm | - | 0 W/m² | - |
| 1777524207 | 20.56° C | 17% | 1016 hPa | 0 mm | - | 0 W/m² | - |
* Rain latest hour (hover to see other rain measurements)
** Current wind speed in m/s (hover to see current wind gust speed)